Change the Weather History Date:

Friday, March 16, 2012

  Actual Average Record
Temperature  
Mean Temperature 63 °F 38 °F  
Max Temperature 80 °F 48 °F 80 °F (2012)
Min Temperature 46 °F 28 °F 10 °F (1997)
Degree Days  
Heating Degree Days 2 27  
Month to date heating degree days 299 476  
Since 1 July heating degree days 5231  
Cooling Degree Days 0 0  
Month to date cooling degree days 0 0  
Year to date cooling degree days 0 0  
Growing Degree Days 13 (Base 50)    
Moisture  
Dew Point 50 °F    
Average Humidity 67    
Maximum Humidity 86    
Minimum Humidity 42    
Precipitation  
Precipitation 0.00 in 0.07 in 0.02 in (2001)
Month to date precipitation 0.82 1.13  
Year to date precipitation 2.94 3.86  
Sea Level Pressure  
Sea Level Pressure 30.02 in    
Wind  
Wind Speed 7 mph (South)    
Max Wind Speed 17 mph    
Max Gust Speed 24 mph    
Visibility 9 miles    
Events      
T = Trace of Precipitation, MM = Missing Value Source: NWS Daily Summary

Daily Weather History Graph

Daily Weather History Graph

Search for Another Location

Airport or City:

Trip Planner

Search our weather history database for the weather conditions in past years. The results will help you decide how hot, cold, wet, or windy it might be!

Date:

Astronomy

Mar. 16, 2012 Rise Set
Actual Time 7:02 AM CDT 7:01 PM CDT
Civil Twilight 6:34 AM CDT 7:29 PM CDT
Nautical Twilight 6:02 AM CDT 8:01 PM CDT
Astronomical Twilight 5:29 AM CDT 8:34 PM CDT
Moon 3:25 AM CDT (3/16) 1:16 PM CDT (3/16)
Length of Visible Light 12h 54m
Length of Day
11h 58m
Waning Crescent, 32% of the Moon is Illuminated
Mar 16
Waning Crescent
Mar 22
New
Mar 30
First Quarter
Apr 6
Full
Apr 13
Last Quarter

Hourly Weather History & Observations

Time (CDT) Temp. Windchill Dew Point Humidity Pressure Visibility Wind Dir Wind Speed Gust Speed Precip Events Conditions
12:52 AM 50.0 °F - 44.1 °F 80% 30.01 in 9.0 mi North 4.6 mph - N/A   Clear
1:52 AM 48.9 °F - 44.1 °F 83% 30.01 in 6.0 mi North 5.8 mph - N/A   Haze
2:52 AM 48.9 °F - 44.1 °F 83% 30.01 in 6.0 mi North 3.5 mph - N/A   Haze
3:52 AM 48.9 °F - 44.1 °F 83% 30.00 in 6.0 mi Calm Calm - N/A   Haze
4:52 AM 46.0 °F 43.9 °F 42.1 °F 86% 30.01 in 6.0 mi North 4.6 mph - N/A   Clear
5:52 AM 48.0 °F - 44.1 °F 86% 30.02 in 6.0 mi Calm Calm - N/A   Clear
6:52 AM 48.9 °F - 44.1 °F 83% 30.04 in 6.0 mi SSE 4.6 mph - N/A   Haze
7:52 AM 50.0 °F - 46.0 °F 86% 30.05 in 6.0 mi Calm Calm - N/A   Clear
8:52 AM 60.1 °F - 52.0 °F 75% 30.06 in 9.0 mi South 3.5 mph - N/A   Clear
9:52 AM 66.0 °F - 53.1 °F 63% 30.05 in 10.0 mi South 5.8 mph - N/A   Clear
10:52 AM 70.0 °F - 54.0 °F 57% 30.06 in 10.0 mi Variable 5.8 mph - N/A   Clear
11:52 AM 73.0 °F - 55.9 °F 55% 30.05 in 10.0 mi South 8.1 mph - N/A   Partly Cloudy
1:52 PM 78.1 °F - 57.0 °F 48% 30.02 in 10.0 mi SSW 12.7 mph 20.7 mph N/A   Partly Cloudy
2:52 PM 80.1 °F - 55.0 °F 42% 30.00 in 10.0 mi South 12.7 mph 16.1 mph N/A   Scattered Clouds
4:52 PM 78.1 °F - 54.0 °F 43% 29.98 in 10.0 mi SSW 10.4 mph - N/A   Partly Cloudy
5:52 PM 77.0 °F - 54.0 °F 45% 29.99 in 10.0 mi SSW 11.5 mph - N/A   Clear
6:52 PM 71.1 °F - 54.0 °F 55% 30.00 in 10.0 mi South 6.9 mph - N/A   Clear
7:52 PM 66.9 °F - 53.1 °F 61% 30.01 in 10.0 mi South 6.9 mph - N/A   Clear
8:52 PM 64.9 °F - 53.1 °F 65% 30.02 in 10.0 mi South 6.9 mph - N/A   Clear
9:52 PM 66.0 °F - 53.1 °F 63% 30.03 in 10.0 mi South 8.1 mph - N/A   Clear
10:52 PM 61.0 °F - 51.1 °F 70% 30.04 in 10.0 mi South 6.9 mph - N/A   Clear
11:52 PM 61.0 °F - 51.1 °F 70% 30.04 in 10.0 mi South 8.1 mph - N/A   Clear